Location: Frizzleburg
(41.0764°N, 80.4548°W)
Time: 13:26:30
(UTC+00:00)

Cosmos 1371 Rocket - Pass Details

Date: 17 November 2019
Orbit: 755 x 789 km, 74.0° (Epoch: 09 December)

Event Time Altitude Azimuth Distance (km) Brightness Sun altitude
Rises 00:28:18 0° 336° (NNW) 3,228 7.5 -27.5°
Reaches altitude 10° 00:30:43 10° 332° (NNW) 2,295 6.7 -27.9°
Maximum altitude 00:35:47 57° 255° (WSW) 891 4.5 -28.9°
Enters shadow 00:37:22 40° 200° (SSW) 1,104 4.9 -29.2°
